Location: Unspecified
(0.0000°N, 0.0000°E)
Time: 09:12:25
(UTC+00:00)

Vanguard 2 - Pass Details

Date: 26 October 2021
Orbit: 554 x 2936 km, 32.9° (Epoch: 06 December)

Event Time Altitude Azimuth Distance (km) Brightness Sun altitude
Rises 10:49:47 0° 268° (W) 2,744 10.2 71.6°
Reaches altitude 10° 10:52:36 10° 244° (WSW) 1,957 9.7 72.1°
Maximum altitude 10:55:20 16° 205° (SSW) 1,753 9.7 72.6°
Drops below altitude 10° 10:58:36 10° 167° (SSE) 2,391 10.4 73.1°
Sets 11:02:39 0° 146° (SSE) 3,732 11.3 73.8°
